Home   Weather   Amberg   Past weeks

Flag for Germany Past Weather in Amberg, Bavaria, Germany — Yesterday and Last 2 Weeks

Now
43 °F

Overcast.


Feels Like: 38 °F
Forecast: 27 / 57 °F
Wind: 8 mph from West

Location: Hohenfels

Current Time: Apr 23, 2017 at 8:25:28 pm

Latest Report: Apr 23, 2017 at 7:58 pm


Visibility: N/A

Pressure: 30.25 "Hg

Humidity: 53%

Dew Point: 27 °F

Location of AmbergLocation

Past Weather in Amberg — Graph

°F

Amberg Temperature Yesterday

Maximum temperature yesterday: 50 °F (at 9:58 am)
Minimum temperature yesterday: 41 °F (at 11:59 pm)
Average temperature yesterday: 47 °F

High & Low Weather Summary for the Past Weeks

 TemperatureHumidityPressure
High72 °F (Apr 10, 1:58 pm)100% (Apr 9, 1:58 am)30.60 "Hg (Apr 9, 1:58 am)
Low23 °F (Apr 21, 4:58 am)31% (Apr 10, 3:58 pm)29.85 "Hg (Apr 13, 4:58 am)
Average44 °F74%30.14 "Hg
* Reported Apr 8 6:25 pm — Apr 23 6:58 pm, Amberg, Weather by CustomWeather, © 2017

Note: Actual official high and low records may vary slightly from our data, if they occured in-between our weather recording intervals... More about our weather records

Advertising

Amberg Weather History for the Previous 24 Hours

Scroll right to see more
 ConditionsComfort  
Time TempWeatherWind HumidityBarometerVisibility
6:58 pm
Sun, Apr 23
45 °FScattered clouds.9 mph46%30.24 "HgN/A
5:59 pm45 °FOvercast.8 mph49%30.24 "HgN/A
4:59 pm45 °FOvercast.9 mph49%30.23 "HgN/A
3:59 pm45 °FOvercast.10 mph49%30.23 "HgN/A
2:58 pm45 °FOvercast.10 mph49%30.23 "HgN/A
1:59 pm43 °FOvercast.9 mph53%30.24 "HgN/A
12:59 pm43 °FOvercast.5 mph57%30.24 "HgN/A
11:59 am43 °FOvercast.8 mph53%30.24 "HgN/A
11:21 am41 °FMore clouds than sun.9 mph61%30.20 "HgN/A
10:59 am43 °FMore clouds than sun.10 mph61%30.24 "HgN/A
9:59 am41 °FMore clouds than sun.7 mph70%30.24 "HgN/A
8:58 am41 °FMore clouds than sun.10 mph66%30.23 "HgN/A
7:59 am37 °FOvercast.8 mph81%30.24 "HgN/A
6:58 am37 °FOvercast.7 mph81%30.21 "HgN/A
5:59 am37 °FOvercast.5 mph81%30.21 "HgN/A
4:58 am39 °FOvercast.5 mph75%30.19 "HgN/A
3:59 am39 °FOvercast.6 mph75%30.18 "HgN/A
3:42 am39 °FLight rain. Mostly cloudy.6 mph70%30.14 "HgN/A
2:59 am41 °FMostly cloudy.5 mph70%30.17 "HgN/A
1:58 am41 °FOvercast.6 mph70%30.17 "HgN/A
12:59 am41 °FOvercast.6 mph70%30.18 "HgN/A
11:59 pm
Sat, Apr 22
41 °FOvercast.9 mph70%30.17 "HgN/A
10:58 pm43 °FOvercast.5 mph66%30.17 "HgN/A
9:59 pm43 °FOvercast.6 mph66%30.17 "HgN/A
Weather by CustomWeather, © 2017

See weather overviewHow to use our weather pages